GW1769 Weather Reports


time (UTC)temp
F
wind
direction
speed
knots
gust
knots
rain 1hr
in
rain 24hr
in
rain mn
in
humidity
%
barometer
mb
20260904193054 75 185 0.9 0.9 0.00 0.00 0.00 70 1008.3
20260904192554 78 187 0.0 0.9 0.00 0.00 0.00 67 1008.4
20260904192049 78 198 0.9 0.9 0.00 0.00 0.00 67 1008.0
20260904191546 76 185 0.0 0.0 0.00 0.00 0.00 75 1008.3
20260904191042 75 182 0.0 0.0 0.00 0.00 0.00 78 1008.3
20260904190537 75 175 0.9 0.9 0.00 0.00 0.00 73 1008.4
20260904190034 76 180 1.7 1.7 0.00 0.00 0.00 72 1008.3
20260904185530 76 186 0.0 0.0 0.00 0.00 0.00 72 1008.3
20260904185024 75 205 0.9 0.9 0.00 0.00 0.00 72 1008.3
20260904184519 74 196 0.9 0.9 0.00 0.00 0.00 76 1008.6
20260904184014 77 240 1.7 1.7 0.00 0.00 0.00 70 1008.6
20260904183509 76 190 0.0 0.0 0.00 0.00 0.00 74 1008.6
20260904183004 76 249 0.9 1.7 0.00 0.00 0.00 74 1008.7
20260904182500 77 171 0.9 1.7 0.00 0.00 0.00 70 1008.6
20260904181959 77 185 0.9 0.9 0.00 0.00 0.00 71 1008.8
20260904181455 77 252 0.9 1.7 0.00 0.00 0.00 70 1008.7
20260904180950 77 236 1.7 2.6 0.00 0.00 0.00 67 1008.5
20260904180444 77 192 0.0 0.9 0.00 0.00 0.00 73 1008.9
20260904175944 78 212 1.7 1.7 0.00 0.00 0.00 69 1008.7
20260904175443 76 183 0.9 0.9 0.00 0.00 0.00 70 1008.8
20260904174938 74 186 0.9 0.9 0.00 0.00 0.00 75 1009.0
20260904174433 76 196 2.6 2.6 0.00 0.00 0.00 72 1008.9
20260904173929 77 234 0.9 1.7 0.00 0.00 0.00 67 1009.0
20260904173419 76 177 0.0 0.9 0.00 0.00 0.00 69 1009.1
20260904172914 74 179 0.9 1.7 0.00 0.00 0.00 74 1009.1
20260904172414 77 260 1.7 1.7 0.00 0.00 0.00 67 1009.0
20260904171909 77 150 0.9 0.9 0.00 0.00 0.00 72 1009.0
20260904171404 76 233 0.0 0.9 0.00 0.00 0.00 71 1008.7
20260904170901 77 196 1.7 1.7 0.00 0.00 0.00 72 1008.8
20260904170355 76 216 0.9 1.7 0.00 0.00 0.00 68 1008.8
20260904165850 77 254 0.9 1.7 0.00 0.00 0.00 70 1008.8
20260904165344 77 149 0.9 0.9 0.00 0.00 0.00 68 1008.8
20260904164838 77 247 1.7 2.6 0.00 0.00 0.00 71 1008.8
20260904164333 75 76 1.7 2.6 0.00 0.00 0.00 71 1008.9
20260904163829 77 149 0.9 0.9 0.00 0.00 0.00 73 1008.7
20260904163329 76 203 1.7 1.7 0.00 0.00 0.00 69 1009.0
20260904162828 76 243 1.7 1.7 0.00 0.00 0.00 72 1008.9
20260904162324 77 237 1.7 1.7 0.00 0.00 0.00 70 1009.0
20260904161819 76 183 0.0 0.9 0.00 0.00 0.00 69 1009.4
20260904161319 76 255 1.7 1.7 0.00 0.00 0.00 70 1009.3
20260904160814 76 169 2.6 4.3 0.00 0.00 0.00 69 1009.4
20260904160310 76 233 2.6 2.6 0.00 0.00 0.00 70 1009.2
20260904155809 76 224 2.6 2.6 0.00 0.00 0.00 68 1009.3
20260904155307 76 232 1.7 1.7 0.00 0.00 0.00 73 1009.3
20260904154803 76 202 2.6 2.6 0.00 0.00 0.00 69 1009.4
20260904154258 75 292 2.6 2.6 0.00 0.00 0.00 72 1009.6
20260904153753 75 242 2.6 2.6 0.00 0.00 0.00 72 1009.5
20260904153249 76 223 1.7 1.7 0.00 0.00 0.00 77 1009.5
20260904152745 76 224 0.9 0.9 0.00 0.00 0.00 74 1009.5
20260904152240 75 170 0.9 1.7 0.00 0.00 0.00 78 1009.3
20260904151735 75 194 0.9 0.9 0.00 0.00 0.00 73 1009.6
20260904151234 75 194 0.0 0.0 0.00 0.00 0.00 71 1009.7
20260904150730 76 180 0.9 0.9 0.00 0.00 0.00 71 1009.8
20260904150224 75 219 1.7 1.7 0.00 0.00 0.00 76 1009.9
20260904145723 75 178 0.9 1.7 0.00 0.00 0.00 77 1009.8
20260904145219 75 176 0.9 1.7 0.00 0.00 0.00 74 1009.7
20260904144714 74 275 1.7 2.6 0.00 0.00 0.00 77 1009.8
20260904144209 74 225 1.7 1.7 0.00 0.00 0.00 77 1009.9
20260904143705 74 170 1.7 1.7 0.00 0.00 0.00 78 1009.5
20260904143202 73 180 0.9 0.9 0.00 0.00 0.00 80 1009.6
20260904142658 73 234 1.7 1.7 0.00 0.00 0.00 80 1009.8
20260904142153 73 260 0.9 1.7 0.00 0.00 0.00 81 1009.6
20260904141648 73 256 1.7 1.7 0.00 0.00 0.00 83 1009.6
20260904141143 72 185 1.7 1.7 0.00 0.00 0.00 84 1009.5
20260904140639 73 180 0.0 0.9 0.00 0.00 0.00 82 1009.6
20260904140133 73 212 1.7 1.7 0.00 0.00 0.00 83 1009.6
20260904135627 72 223 0.9 0.9 0.00 0.00 0.00 87 1009.5
20260904135123 72 259 1.7 1.7 0.00 0.00 0.00 85 1009.4
20260904134619 72 156 2.6 2.6 0.00 0.00 0.00 85 1009.7
20260904134118 71 205 0.9 0.9 0.00 0.00 0.00 88 1009.4
20260904133613 71 200 0.9 0.9 0.00 0.00 0.00 87 1009.5
20260904133109 70 225 0.9 0.9 0.00 0.00 0.00 89 1009.6
20260904132608 70 184 0.9 1.7 0.00 0.00 0.00 90 1009.6
20260904132103 70 221 1.7 2.6 0.00 0.00 0.00 91 1009.5
20260904131602 69 210 0.9 1.7 0.00 0.00 0.00 91 1009.6
20260904131058 68 178 0.0 0.9 0.00 0.00 0.00 93 1009.6
20260904130558 68 194 0.9 0.9 0.00 0.00 0.00 93 1009.5
20260904130052 68 205 0.9 1.7 0.00 0.00 0.00 94 1009.7
20260904125550 68 249 1.7 1.7 0.00 0.00 0.00 94 1009.6
20260904125049 67 186 2.6 5.2 0.00 0.00 0.00 96 1009.4
20260904124545 67 204 0.9 0.9 0.00 0.00 0.00 96 1009.6
20260904124040 67 180 1.7 2.6 0.00 0.00 0.00 96 1009.6
20260904123535 66 259 2.6 2.6 0.00 0.00 0.00 97 1009.5
20260904123030 66 195 0.0 0.9 0.00 0.00 0.00 98 1009.7
20260904122525 66 220 0.0 0.0 0.00 0.00 0.00 99 1009.6
20260904122019 65 190 0.0 0.0 0.00 0.00 0.00 99 1009.6
20260904121514 65 207 0.9 1.7 0.00 0.00 0.00 99 1009.7
20260904121005 65 205 0.9 0.9 0.00 0.00 0.00 99 1009.7
20260904120501 65 181 0.0 0.0 0.00 0.00 0.00 99 1009.7
20260904115956 64 246 0.9 1.7 0.00 0.00 0.00 99 1009.5
20260904115452 64 171 0.9 0.9 0.00 0.00 0.00 99 1009.7
20260904114950 64 240 0.9 0.9 0.00 0.00 0.00 99 1009.7
20260904114445 64 233 0.9 0.9 0.00 0.00 0.00 99 1009.6
20260904113941 64 226 0.0 0.9 0.00 0.00 0.00 99 1009.4
20260904113440 64 197 1.7 1.7 0.00 0.00 0.00 99 1009.5
20260904112934 64 259 0.9 1.7 0.00 0.00 0.00 99 1009.6
20260904112430 64 219 0.0 0.9 0.00 0.00 0.00 99 1009.3
20260904111925 63 193 0.9 0.9 0.00 0.00 0.00 99 1009.3
20260904111421 63 216 1.7 1.7 0.00 0.00 0.00 99 1009.4
20260904110917 62 221 0.0 0.0 0.00 0.00 0.00 99 1009.3
20260904110415 62 213 0.0 0.0 0.00 0.00 0.00 99 1009.2
20260904105911 61 203 0.0 0.9 0.00 0.00 0.00 99 1009.1
20260904105406 61 182 0.0 0.0 0.00 0.00 0.00 99 1008.9
20260904104901 61 189 0.0 0.0 0.00 0.00 0.00 99 1008.9
20260904104355 61 196 0.0 0.0 0.00 0.00 0.00 99 1008.9
20260904103853 61 185 0.0 0.0 0.00 0.00 0.00 99 1008.9
20260904103353 61 221 0.0 0.0 0.00 0.00 0.00 99 1008.9
20260904102849 61 183 0.0 0.0 0.00 0.00 0.00 99 1009.0
20260904102344 61 186 0.0 0.0 0.00 0.00 0.00 99 1008.6
20260904101839 61 185 0.0 0.0 0.00 0.00 0.00 99 1008.7
20260904101336 61 180 0.0 0.0 0.00 0.00 0.00 99 1008.8
20260904100831 61 180 0.0 0.0 0.00 0.00 0.00 99 1008.8
20260904100327 61 185 0.0 0.0 0.00 0.00 0.00 99 1008.5
20260904095822 61 201 0.0 0.0 0.00 0.00 0.00 99 1008.7
20260904095316 61 182 0.0 0.0 0.00 0.00 0.00 99 1008.6
20260904094812 61 183 0.0 0.0 0.00 0.00 0.00 99 1008.5
20260904094307 61 183 0.0 0.0 0.00 0.00 0.00 99 1008.4
20260904093803 61 181 0.0 0.0 0.00 0.00 0.00 99 1008.5
20260904093302 61 181 0.0 0.0 0.00 0.00 0.00 99 1008.3
20260904092757 62 180 0.0 0.0 0.00 0.00 0.00 99 1008.3
20260904092254 61 184 0.0 0.0 0.00 0.00 0.00 99 1008.3
20260904091751 62 181 0.0 0.0 0.00 0.00 0.00 99 1008.2
20260904091251 62 182 0.0 0.0 0.00 0.00 0.00 99 1008.4
20260904090746 62 194 0.0 0.0 0.00 0.00 0.00 99 1008.0
20260904090242 62 181 0.0 0.0 0.00 0.00 0.00 99 1008.4
20260904085737 62 198 0.0 0.0 0.00 0.00 0.00 99 1008.2
20260904085232 62 201 0.0 0.0 0.00 0.00 0.00 99 1008.3
20260904084726 62 190 0.0 0.0 0.00 0.00 0.00 99 1008.2
20260904084222 62 194 0.0 0.0 0.00 0.00 0.00 99 1008.2
20260904083718 62 195 0.0 0.0 0.00 0.00 0.00 99 1008.4
20260904083215 62 185 0.0 0.0 0.00 0.00 0.00 99 1008.1
20260904082709 62 189 0.0 0.0 0.00 0.00 0.00 99 1008.0
20260904082204 62 187 0.0 0.0 0.00 0.00 0.00 99 1008.1
20260904081654 62 191 0.0 0.0 0.00 0.00 0.00 99 1008.3
20260904081149 62 199 0.0 0.0 0.00 0.00 0.00 99 1008.0
20260904080645 62 225 0.0 0.0 0.00 0.00 0.00 99 1008.1
20260904080140 62 185 0.0 0.0 0.00 0.00 0.00 99 1008.1
20260904075637 62 183 0.0 0.0 0.00 0.00 0.00 99 1008.0
20260904075137 62 183 0.0 0.0 0.00 0.00 0.00 99 1007.9
20260904074630 62 181 0.0 0.0 0.00 0.00 0.00 99 1008.1
20260904074125 62 193 0.0 0.0 0.00 0.00 0.00 99 1008.3
20260904073620 61 189 0.0 0.0 0.00 0.00 0.00 99 1008.0
20260904073116 61 180 0.0 0.0 0.00 0.00 0.00 99 1008.0
20260904072612 61 179 0.0 0.0 0.00 0.00 0.00 99 1007.8
20260904072107 62 178 0.0 0.0 0.00 0.00 0.00 99 1008.1
20260904071603 61 179 0.0 0.0 0.00 0.00 0.00 99 1008.0
20260904071057 61 179 0.0 0.0 0.00 0.00 0.00 99 1008.0
20260904070556 62 179 0.0 0.0 0.00 0.00 0.00 99 1008.1
20260904070052 62 179 0.0 0.0 0.00 0.00 0.00 99 1008.0
20260904065546 62 178 0.0 0.0 0.00 0.00 0.00 99 1008.1
20260904065043 62 186 0.0 0.0 0.00 0.00 0.00 99 1008.3
20260904064538 62 180 0.0 0.0 0.00 0.00 0.00 99 1008.3
20260904064033 62 178 0.0 0.0 0.00 0.00 0.00 99 1008.3
20260904063529 63 179 0.0 0.0 0.00 0.00 0.00 99 1008.4
20260904063024 63 179 0.0 0.0 0.00 0.00 0.00 99 1008.3
20260904062520 63 179 0.0 0.0 0.00 0.00 0.00 99 1008.3
20260904062015 64 178 0.0 0.0 0.00 0.00 0.00 99 1008.6
20260904061511 64 181 0.0 0.0 0.00 0.00 0.00 99 1008.7
20260904061008 64 191 0.0 0.0 0.00 0.00 0.00 99 1008.9
20260904060503 64 184 0.0 0.0 0.00 0.00 0.00 99 1008.7
20260904055959 64 186 0.0 0.0 0.00 0.00 0.00 99 1008.8
20260904055454 64 210 0.0 0.0 0.00 0.00 0.00 99 1008.8
20260904054949 63 199 0.0 0.0 0.00 0.00 0.00 99 1008.9
20260904054445 63 181 0.0 0.0 0.00 0.00 0.00 99 1008.6
20260904053941 64 201 0.0 0.0 0.00 0.00 0.00 99 1008.8
20260904053440 63 199 0.0 0.0 0.00 0.00 0.00 99 1008.8
20260904052936 63 180 0.0 0.0 0.00 0.00 0.00 99 1008.8
20260904052432 63 180 0.0 0.0 0.00 0.00 0.00 99 1008.7
20260904051928 63 181 0.0 0.0 0.00 0.00 0.00 99 1008.7
20260904051424 63 181 0.0 0.0 0.00 0.00 0.00 99 1008.7
20260904050923 62 180 0.0 0.0 0.00 0.00 0.00 99 1008.8
20260904050420 62 179 0.0 0.0 0.00 0.00 0.00 99 1008.7
20260904045920 63 179 0.0 0.0 0.00 0.00 0.00 99 1009.0
20260904045415 63 179 0.0 0.0 0.00 0.00 0.00 99 1009.3
20260904044915 63 187 0.0 0.0 0.00 0.00 0.00 99 1008.8
20260904044411 62 179 0.0 0.0 0.00 0.00 0.00 99 1008.9
20260904043907 62 179 0.0 0.0 0.00 0.00 0.00 99 1009.0
20260904043404 62 178 0.0 0.0 0.00 0.00 0.00 99 1009.0
20260904042859 62 178 0.0 0.0 0.00 0.00 0.00 99 1009.1
20260904042355 62 177 0.0 0.0 0.00 0.00 0.00 99 1009.1
20260904041849 62 177 0.0 0.0 0.00 0.00 0.00 99 1009.2
20260904041346 62 178 0.0 0.0 0.00 0.00 0.00 99 1009.3
20260904040842 62 178 0.0 0.0 0.00 0.00 0.00 99 1009.3
20260904040337 62 178 0.0 0.0 0.00 0.00 0.00 99 1009.2
20260904035833 62 180 0.0 0.0 0.00 0.00 0.00 99 1009.4
20260904035329 62 180 0.0 0.0 0.00 0.00 0.00 99 1009.3
20260904034827 61 180 0.0 0.0 0.00 0.00 0.00 99 1009.3
20260904034323 61 180 0.0 0.0 0.00 0.00 0.00 99 1009.4
20260904033819 61 180 0.0 0.0 0.00 0.00 0.00 99 1009.2
20260904033315 61 180 0.0 0.0 0.00 0.00 0.00 99 1009.5
20260904032811 62 181 0.0 0.0 0.00 0.00 0.00 99 1009.3
20260904032310 62 182 0.0 0.0 0.00 0.00 0.00 99 1009.5
20260904031805 62 182 0.0 0.0 0.00 0.00 0.00 99 1009.6
20260904031300 62 182 0.0 0.0 0.00 0.00 0.00 99 1009.4
20260904030756 62 182 0.0 0.0 0.00 0.00 0.00 99 1009.3
20260904030251 62 179 0.0 0.0 0.00 0.00 0.00 99 1009.3
20260904025747 63 179 0.0 0.0 0.00 0.00 0.00 99 1009.4
20260904025242 63 179 0.0 0.0 0.00 0.00 0.00 99 1009.5
20260904024732 63 179 0.0 0.0 0.00 0.00 0.00 99 1009.7
20260904024227 63 179 0.0 0.0 0.00 0.00 0.00 99 1009.7
20260904023718 63 179 0.0 0.0 0.00 0.00 0.00 99 1009.8
20260904023214 63 179 0.0 0.0 0.00 0.00 0.00 99 1009.6
20260904022713 63 179 0.0 0.0 0.00 0.00 0.00 99 1009.9
20260904022210 63 179 0.0 0.0 0.00 0.00 0.00 99 1009.8
20260904021706 63 179 0.0 0.0 0.00 0.00 0.00 99 1009.8
20260904021201 63 179 0.0 0.0 0.00 0.00 0.00 99 1010.2
20260904020657 63 179 0.0 0.0 0.00 0.00 0.00 99 1010.1
20260904020156 63 179 0.0 0.0 0.00 0.00 0.00 99 1010.0
20260904015655 63 179 0.0 0.0 0.00 0.00 0.00 99 1009.9
20260904015155 63 178 0.0 0.0 0.00 0.00 0.00 99 1009.9
20260904014654 64 178 0.0 0.0 0.00 0.00 0.00 99 1010.0
20260904014149 64 178 0.0 0.0 0.00 0.00 0.00 99 1009.7
20260904013646 64 178 0.0 0.0 0.00 0.00 0.00 99 1009.9
20260904013141 64 178 0.0 0.0 0.00 0.00 0.00 99 1009.8
20260904012637 64 178 0.0 0.0 0.00 0.00 0.00 99 1009.8
20260904012136 64 178 0.0 0.0 0.00 0.00 0.00 99 1009.5
20260904011635 64 178 0.0 0.0 0.00 0.00 0.00 99 1009.8
20260904011131 64 178 0.0 0.0 0.00 0.00 0.00 99 1009.5
20260904010627 64 177 0.0 0.0 0.00 0.00 0.00 99 1009.6
20260904010123 64 178 0.0 0.0 0.00 0.00 0.00 99 1009.8
20260904005618 64 180 0.0 0.0 0.00 0.00 0.00 99 1009.7
20260904005113 64 180 0.0 0.0 0.00 0.00 0.00 99 1010.0
20260904004609 65 180 0.0 0.0 0.00 0.00 0.00 99 1009.5
20260904004108 65 181 0.0 0.0 0.00 0.00 0.00 99 1009.6
20260904003605 65 181 0.0 0.0 0.00 0.00 0.00 99 1009.7
20260904003100 65 179 0.0 0.0 0.00 0.00 0.00 99 1009.4
20260904002556 65 179 0.0 0.0 0.00 0.00 0.00 99 1009.4
20260904002050 66 180 0.0 0.0 0.00 0.00 0.00 99 1009.4
20260904001546 66 179 0.0 0.0 0.00 0.00 0.00 99 1009.7
20260904001044 66 180 0.0 0.0 0.00 0.00 0.00 99 1009.4
20260904000539 66 180 0.0 0.0 0.00 0.00 0.00 99 1009.5
20260904000035 66 181 0.0 0.0 0.00 0.00 0.00 99 1009.5
20260903235530 66 179 0.0 0.0 0.00 0.00 0.00 99 1009.3
20260903235026 67 180 0.0 0.0 0.00 0.00 0.00 99 1009.5
20260903234521 67 182 0.0 0.0 0.00 0.00 0.00 99 1009.3
20260903234016 68 188 0.0 0.0 0.00 0.00 0.00 99 1009.7
20260903233513 68 178 0.0 0.0 0.00 0.00 0.00 98 1009.3
20260903233008 68 184 0.0 0.0 0.00 0.00 0.00 98 1009.3
20260903232503 69 180 0.0 0.0 0.00 0.00 0.00 97 1009.2
20260903232003 69 180 0.0 0.0 0.00 0.00 0.00 96 1009.1
20260903231457 70 180 0.0 0.0 0.00 0.00 0.00 95 1009.4
20260903230951 70 180 0.0 0.0 0.00 0.00 0.00 94 1009.1
20260903230448 71 180 0.0 0.0 0.00 0.00 0.00 93 1009.1
20260903225944 71 180 0.0 0.0 0.00 0.00 0.00 90 1009.1
20260903225439 72 180 0.0 0.0 0.00 0.00 0.00 89 1009.2
20260903224935 72 180 0.0 0.0 0.00 0.00 0.00 89 1009.2
20260903224431 73 180 0.0 0.0 0.00 0.00 0.00 89 1009.0
20260903223927 73 179 0.0 0.0 0.00 0.00 0.00 87 1009.2
20260903223426 73 180 0.0 0.0 0.00 0.00 0.00 86 1009.2
20260903222919 73 180 0.0 0.0 0.00 0.00 0.00 85 1009.4
20260903222415 73 180 0.0 0.0 0.00 0.00 0.00 85 1009.3
20260903221909 73 179 0.0 0.0 0.00 0.00 0.00 84 1009.1
20260903221409 73 179 0.0 0.0 0.00 0.00 0.00 84 1009.2
20260903220906 73 181 0.0 0.0 0.00 0.00 0.00 84 1009.1
20260903220400 73 178 0.0 0.0 0.00 0.00 0.00 84 1009.2
20260903215857 73 178 0.0 0.0 0.00 0.00 0.00 84 1008.9
20260903215355 73 179 0.0 0.0 0.00 0.00 0.00 82 1009.1
20260903214853 73 178 0.0 0.0 0.00 0.00 0.00 82 1009.1
20260903214349 74 182 0.0 0.0 0.00 0.00 0.00 81 1008.9
20260903213848 74 177 0.0 0.0 0.00 0.00 0.00 81 1009.1
20260903213343 74 181 0.0 0.0 0.00 0.00 0.00 81 1009.0
20260903212840 74 183 0.0 0.0 0.00 0.00 0.00 81 1009.2
20260903212336 74 180 0.0 0.0 0.00 0.00 0.00 82 1009.2
20260903211835 75 181 0.0 0.0 0.00 0.00 0.00 82 1009.2
20260903211331 75 206 0.0 0.0 0.00 0.00 0.00 80 1009.1
20260903210827 75 175 0.0 0.9 0.00 0.00 0.00 79 1009.0
20260903210322 76 181 0.0 0.0 0.00 0.00 0.00 81 1009.2
20260903205821 76 185 0.0 0.0 0.00 0.00 0.00 81 1009.1
20260903205316 77 246 0.9 0.9 0.00 0.00 0.00 80 1009.3
20260903204811 77 191 1.7 1.7 0.00 0.00 0.00 76 1009.3
20260903204308 78 183 0.0 0.0 0.00 0.00 0.00 80 1009.2
20260903203803 78 233 0.0 0.0 0.00 0.00 0.00 81 1009.3
20260903203259 77 197 0.0 0.0 0.00 0.00 0.00 81 1009.3
20260903202757 78 259 0.9 1.7 0.00 0.00 0.00 81 1009.0
20260903202254 78 119 0.9 0.9 0.00 0.00 0.00 80 1009.0
20260903201753 77 221 0.9 0.9 0.00 0.00 0.00 82 1009.0
20260903201249 78 182 0.9 0.9 0.00 0.00 0.00 83 1008.9
20260903200747 77 217 0.9 0.9 0.00 0.00 0.00 83 1009.0
20260903200243 77 211 0.0 0.9 0.00 0.00 0.00 82 1009.0
20260903195738 77 193 0.0 0.0 0.00 0.00 0.00 85 1009.1
20260903195234 78 207 1.7 1.7 0.00 0.00 0.00 82 1008.9
20260903194733 78 252 1.7 1.7 0.00 0.00 0.00 82 1009.0
20260903194229 77 182 0.0 0.9 0.00 0.00 0.00 85 1009.3
20260903193724 78 283 0.9 1.7 0.00 0.00 0.00 83 1009.4